Tracking 31027 objects as of 18-Jul-2025
HD Live streaming from Space Station
objects crossing your sky now

SL-16 DEB

Track SL-16 DEB now!
10-day predictions


NORAD ID: 22608
Int'l Code: 1993-016S
Perigee: 857.6 km
Apogee: 1,051.1 km
Inclination: 71.0 °
Period: 104.0 minutes
Semi major axis: 7325 km
RCS: 0.1814 m2 (medium)
Launch date: March 26, 1993
Source: Commonwealth of Independent States (former USSR) (CIS)
Launch site: TYURATAM MISSILE AND SPACE COMPLEX (TTMTR)

Note: This is SATELLITE DEBRIS
Your satellite tracking list
Your tracking list is empty




NASA's NSSDC Master Catalog

Two Line Element Set (TLE):
1 22608U 93016S   25198.24523648 -.00000009  00000-0  29237-4 0  9993
2 22608  71.0046 114.1414 0132072 317.1172 156.5155 13.84701476632573
Source of the keplerian elements: AFSPC